• In Uzbekistan
  • List of Countries
  • For 7 days
  • Water Temperature
  • Satellite Maps
  • Weather Map
  • Weather Widgets
  • user-avatar
    Login

    Hourly Weather Islamabad

    Today, 24 May, Friday

    Time Temperature Precipitation Wind Pressure Humidity
    00:00 +26°C° 0.6 mm 2 mps 712 mmHg 54%
    01:00 +26°C° 0.6 mm 2 mps 712 mmHg 54%
    02:00 +26°C° 0.6 mm 1 mps 712 mmHg 54%
    03:00 +26°C° 0 mm 2 mps 712 mmHg 53%
    04:00 +26°C° 0 mm 2 mps 712 mmHg 51%
    05:00 +25°C° 0 mm 2 mps 712 mmHg 60%
    06:00 +26°C° 0 mm 2 mps 712 mmHg 54%
    07:00 +27°C° 0 mm 2 mps 713 mmHg 49%
    08:00 +28°C° 0 mm 3 mps 713 mmHg 43%
    09:00 +29°C° 0 mm 3 mps 713 mmHg 40%
    10:00 +31°C° 0 mm 3 mps 714 mmHg 36%
    11:00 +31°C° 0 mm 3 mps 714 mmHg 35%
    12:00 +33°C° 0 mm 4 mps 714 mmHg 34%
    13:00 +34°C° 0 mm 4 mps 714 mmHg 33%
    14:00 +34°C° 0 mm 4 mps 714 mmHg 31%
    15:00 +34°C° 0 mm 3 mps 713 mmHg 31%
    16:00 +34°C° 0 mm 3 mps 713 mmHg 30%
    17:00 +34°C° 0 mm 2 mps 713 mmHg 29%
    18:00 +32°C° 0.1 mm 2 mps 713 mmHg 33%
    19:00 +30°C° 0.1 mm 3 mps 713 mmHg 37%
    20:00 +29°C° 0.1 mm 3 mps 713 mmHg 41%
    21:00 +28°C° 1.2 mm 3 mps 713 mmHg 48%
    22:00 +27°C° 1.2 mm 3 mps 713 mmHg 54%
    23:00 +26°C° 1.2 mm 3 mps 713 mmHg 61%

    Tomorrow, 25 May, Saturday

    Time Temperature Precipitation Wind Pressure Humidity
    00:00 +25°C° 0.4 mm 3 mps 712 mmHg 60%
    01:00 +25°C° 0.4 mm 3 mps 712 mmHg 58%
    02:00 +25°C° 0.4 mm 3 mps 712 mmHg 57%
    03:00 +25°C° 0 mm 3 mps 712 mmHg 57%
    04:00 +24°C° 0 mm 3 mps 712 mmHg 57%
    05:00 +24°C° 0 mm 2 mps 711 mmHg 56%
    06:00 +25°C° 0 mm 2 mps 712 mmHg 49%
    07:00 +27°C° 0 mm 2 mps 712 mmHg 42%
    08:00 +29°C° 0 mm 2 mps 712 mmHg 35%
    09:00 +30°C° 0 mm 3 mps 712 mmHg 32%
    10:00 +31°C° 0 mm 3 mps 712 mmHg 28%
    11:00 +34°C° 0 mm 3 mps 712 mmHg 24%
    12:00 +35°C° 0 mm 3 mps 711 mmHg 23%
    13:00 +35°C° 0 mm 3 mps 711 mmHg 22%
    14:00 +36°C° 0 mm 3 mps 711 mmHg 21%
    15:00 +36°C° 0 mm 3 mps 710 mmHg 21%
    16:00 +36°C° 0 mm 3 mps 710 mmHg 21%
    17:00 +36°C° 0 mm 2 mps 710 mmHg 21%
    18:00 +35°C° 0 mm 2 mps 710 mmHg 23%
    19:00 +32°C° 0 mm 1 mps 710 mmHg 26%
    20:00 +31°C° 0 mm 1 mps 710 mmHg 28%
    21:00 +30°C° 0 mm 2 mps 710 mmHg 29%
    22:00 +30°C° 0 mm 2 mps 710 mmHg 30%
    23:00 +29°C° 0 mm 3 mps 710 mmHg 32%

    Day after tomorrow, 26 May, Sunday

    Time Temperature Precipitation Wind Pressure Humidity
    00:00 +28°C° 0 mm 3 mps 710 mmHg 33%
    01:00 +28°C° 0 mm 3 mps 710 mmHg 35%
    02:00 +27°C° 0 mm 2 mps 709 mmHg 36%
    03:00 +27°C° 0 mm 3 mps 709 mmHg 36%
    04:00 +26°C° 0 mm 3 mps 709 mmHg 37%
    05:00 +26°C° 0 mm 3 mps 709 mmHg 37%
    06:00 +28°C° 0 mm 2 mps 710 mmHg 34%
    07:00 +29°C° 0 mm 2 mps 710 mmHg 31%
    08:00 +31°C° 0 mm 2 mps 711 mmHg 28%
    09:00 +32°C° 0 mm 2 mps 711 mmHg 25%
    10:00 +35°C° 0 mm 3 mps 711 mmHg 22%
    11:00 +36°C° 0 mm 3 mps 711 mmHg 19%
    12:00 +37°C° 0 mm 3 mps 711 mmHg 17%
    13:00 +38°C° 0 mm 4 mps 711 mmHg 15%
    14:00 +38°C° 0 mm 4 mps 711 mmHg 13%
    15:00 +38°C° 0 mm 4 mps 711 mmHg 13%
    16:00 +38°C° 0 mm 4 mps 710 mmHg 12%
    17:00 +38°C° 0 mm 4 mps 710 mmHg 12%
    18:00 +36°C° 0 mm 3 mps 710 mmHg 13%
    19:00 +34°C° 0 mm 2 mps 711 mmHg 15%
    20:00 +32°C° 0 mm 2 mps 711 mmHg 16%
    21:00 +31°C° 0 mm 2 mps 711 mmHg 18%
    22:00 +30°C° 0 mm 3 mps 711 mmHg 20%
    23:00 +29°C° 0 mm 3 mps 711 mmHg 22%

    27 May, Monday

    Time Temperature Precipitation Wind Pressure Humidity
    00:00 +28°C° 0 mm 3 mps 711 mmHg 24%
    01:00 +28°C° 0 mm 3 mps 711 mmHg 25%
    02:00 +27°C° 0 mm 3 mps 711 mmHg 27%
    03:00 +27°C° 0 mm 3 mps 711 mmHg 28%
    04:00 +26°C° 0 mm 3 mps 711 mmHg 29%
    05:00 +26°C° 0 mm 3 mps 711 mmHg 31%
    06:00 +28°C° 0 mm 3 mps 711 mmHg 28%
    07:00 +30°C° 0 mm 3 mps 712 mmHg 26%
    08:00 +31°C° 0 mm 3 mps 712 mmHg 24%
    09:00 +34°C° 0 mm 3 mps 712 mmHg 21%
    10:00 +36°C° 0 mm 3 mps 713 mmHg 17%
    11:00 +37°C° 0 mm 3 mps 713 mmHg 14%
    12:00 +38°C° 0 mm 3 mps 712 mmHg 12%
    13:00 +40°C° 0 mm 4 mps 712 mmHg 11%
    14:00 +40°C° 0 mm 4 mps 711 mmHg 10%
    15:00 +40°C° 0 mm 4 mps 711 mmHg 10%
    16:00 +40°C° 0 mm 4 mps 711 mmHg 10%
    17:00 +40°C° 0 mm 4 mps 710 mmHg 10%
    18:00 +37°C° 0 mm 3 mps 711 mmHg 12%
    19:00 +35°C° 0 mm 2 mps 711 mmHg 13%
    20:00 +32°C° 0 mm 1 mps 711 mmHg 15%
    21:00 +32°C° 0 mm 2 mps 711 mmHg 16%
    22:00 +31°C° 0 mm 2 mps 711 mmHg 18%
    23:00 +30°C° 0 mm 3 mps 711 mmHg 19%

    28 May, Tuesday

    Time Temperature Precipitation Wind Pressure Humidity
    00:00 +29°C° 0 mm 3 mps 711 mmHg 20%
    01:00 +29°C° 0 mm 3 mps 711 mmHg 22%
    02:00 +28°C° 0 mm 3 mps 711 mmHg 24%
    03:00 +28°C° 0 mm 3 mps 710 mmHg 24%
    04:00 +27°C° 0 mm 3 mps 710 mmHg 24%
    05:00 +27°C° 0 mm 3 mps 710 mmHg 24%
    06:00 +29°C° 0 mm 3 mps 711 mmHg 23%
    07:00 +31°C° 0 mm 3 mps 711 mmHg 21%
    08:00 +34°C° 0 mm 3 mps 711 mmHg 20%
    09:00 +35°C° 0 mm 3 mps 712 mmHg 17%
    10:00 +37°C° 0 mm 3 mps 712 mmHg 15%
    11:00 +39°C° 0 mm 3 mps 712 mmHg 12%
    12:00 +39°C° 0 mm 3 mps 711 mmHg 11%
    13:00 +40°C° 0 mm 3 mps 711 mmHg 9%
    14:00 +42°C° 0 mm 4 mps 711 mmHg 8%
    15:00 +42°C° 0 mm 4 mps 710 mmHg 8%
    16:00 +41°C° 0 mm 4 mps 710 mmHg 8%
    17:00 +41°C° 0 mm 4 mps 710 mmHg 8%
    18:00 +38°C° 0 mm 3 mps 710 mmHg 10%
    19:00 +36°C° 0 mm 2 mps 710 mmHg 12%
    20:00 +33°C° 0 mm 1 mps 710 mmHg 13%
    21:00 +34°C° 0 mm 2 mps 710 mmHg 14%
    22:00 +32°C° 0 mm 2 mps 710 mmHg 15%
    23:00 +31°C° 0 mm 3 mps 711 mmHg 15%

    29 May, Wednesday

    Time Temperature Precipitation Wind Pressure Humidity
    00:00 +31°C° 0 mm 3 mps 710 mmHg 17%
    01:00 +30°C° 0 mm 3 mps 710 mmHg 19%
    02:00 +29°C° 0 mm 3 mps 710 mmHg 21%
    03:00 +29°C° 0 mm 3 mps 709 mmHg 23%
    04:00 +28°C° 0 mm 3 mps 709 mmHg 24%
    05:00 +28°C° 0 mm 3 mps 709 mmHg 25%
    06:00 +30°C° 0 mm 3 mps 710 mmHg 23%
    07:00 +33°C° 0 mm 3 mps 710 mmHg 21%
    08:00 +35°C° 0 mm 3 mps 711 mmHg 19%
    09:00 +37°C° 0 mm 2 mps 711 mmHg 16%
    10:00 +38°C° 0 mm 2 mps 711 mmHg 13%
    11:00 +40°C° 0 mm 2 mps 711 mmHg 10%
    12:00 +42°C° 0 mm 3 mps 710 mmHg 9%
    13:00 +42°C° 0 mm 3 mps 710 mmHg 8%
    14:00 +43°C° 0 mm 3 mps 710 mmHg 7%
    15:00 +43°C° 0 mm 4 mps 709 mmHg 7%
    16:00 +43°C° 0 mm 4 mps 709 mmHg 7%
    17:00 +43°C° 0 mm 4 mps 709 mmHg 7%
    18:00 +40°C° 0 mm 3 mps 709 mmHg 9%
    19:00 +38°C° 0 mm 2 mps 709 mmHg 10%
    20:00 +35°C° 0 mm 1 mps 709 mmHg 11%
    21:00 +35°C° 0 mm 2 mps 709 mmHg 12%
    22:00 +34°C° 0 mm 3 mps 710 mmHg 13%
    23:00 +33°C° 0 mm 3 mps 710 mmHg 13%
    Show more